EW5412 Weather Reports


Display with metric or nautical units.
time (UTC)temp
F
wind
direction
speed
MPH
gust
MPH
rain 1hr
in
rain 24hr
in
rain mn
in
humidity
%
barometer
mb
20260903020100 82 284 2.0 5.0 0.00 0.00 0.00 83 1012.2
20260903014619 82 284 3.0 6.0 0.00 0.00 0.00 83 1012.0
20260903013105 82 278 3.0 6.0 0.00 0.00 0.00 83 1012.0
20260903011620 82 277 3.0 5.0 0.00 0.00 0.00 83 1011.8
20260903010110 83 275 1.0 4.0 0.00 0.00 0.00 83 1011.6
20260903004604 83 278 2.0 4.0 0.00 0.00 0.00 82 1011.5
20260903003109 84 274 0.0 3.0 0.00 0.00 0.00 81 1011.4
20260903001601 85 273 1.0 4.0 0.00 0.00 0.00 79 1011.4
20260903000055 86 272 2.0 5.0 0.00 0.00 0.00 78 1011.5
20260902234557 87 264 2.0 5.0 0.00 0.00 0.00 76 1011.5
20260902233054 89 283 2.0 5.0 0.00 0.00 0.00 73 1011.5
20260902231555 89 267 0.0 5.0 0.00 0.00 0.00 72 1011.7
20260902230059 90 278 2.0 6.0 0.00 0.00 0.00 71 1011.7
20260902224558 90 283 3.0 6.0 0.00 0.00 0.00 69 1011.8
20260902223051 91 284 4.0 6.0 0.00 0.00 0.00 68 1011.8
20260902221550 91 308 2.0 8.0 0.00 0.00 0.00 69 1011.8
20260902220054 91 307 5.0 9.0 0.00 0.00 0.00 67 1011.8
20260902214551 91 290 3.0 10.0 0.00 0.00 0.00 67 1011.9
20260902213049 92 285 3.0 8.0 0.00 0.00 0.00 68 1011.9
20260902211547 91 283 4.0 9.0 0.00 0.00 0.00 67 1011.9
20260902210046 92 285 3.0 10.0 0.00 0.00 0.00 68 1012.0
20260902204544 91 290 7.0 13.0 0.00 0.00 0.00 64 1012.1
20260902203041 91 319 5.0 10.0 0.00 0.00 0.00 64 1012.2
20260902201551 91 281 5.0 10.0 0.00 0.00 0.00 67 1012.3
20260902200044 91 290 6.0 10.0 0.00 0.00 0.00 67 1012.4
20260902194549 91 277 6.0 10.0 0.00 0.00 0.00 68 1012.5
20260902193033 91 332 4.0 9.0 0.00 0.00 0.00 69 1012.7
20260902191532 91 297 4.0 15.0 0.00 0.00 0.00 71 1012.7
20260902190030 91 313 7.0 13.0 0.00 0.00 0.00 66 1012.9
20260902184530 91 316 5.0 8.0 0.00 0.00 0.00 71 1012.9
20260902183027 90 283 5.0 11.0 0.00 0.00 0.00 73 1012.9
20260902181522 89 277 6.0 10.0 0.00 0.00 0.00 70 1012.9
20260902180023 90 287 6.0 10.0 0.00 0.00 0.00 70 1013.0
20260902174520 89 259 4.0 9.0 0.00 0.00 0.00 70 1013.1
20260902173025 89 305 3.0 9.0 0.00 0.00 0.00 69 1013.3
20260902171516 89 284 2.0 7.0 0.00 0.00 0.00 72 1013.5
20260902170017 89 267 4.0 8.0 0.00 0.00 0.00 72 1013.5
20260902164510 88 273 4.0 8.0 0.00 0.00 0.00 72 1013.6
20260902163008 87 269 3.0 8.0 0.00 0.00 0.00 73 1013.7
20260902161504 87 284 5.0 9.0 0.00 0.00 0.00 73 1013.9
20260902160002 87 260 4.0 6.0 0.00 0.00 0.00 72 1014.0
20260902154602 86 277 1.0 8.0 0.00 0.00 0.00 76 1014.1
20260902153054 85 298 3.0 9.0 0.00 0.00 0.00 75 1014.1
20260902151553 85 342 5.0 8.0 0.00 0.00 0.00 76 1014.0
20260902150047 84 326 4.0 7.0 0.00 0.00 0.00 76 1014.1
20260902144544 83 293 5.0 10.0 0.00 0.00 0.00 76 1014.1
20260902143042 83 284 3.0 9.0 0.00 0.00 0.00 78 1014.0
20260902141541 82 305 5.0 10.0 0.00 0.00 0.00 77 1014.1
20260902140035 81 307 4.0 8.0 0.00 0.00 0.00 80 1014.0
20260902134538 80 285 4.0 8.0 0.00 0.00 0.00 79 1014.1
20260902133033 79 283 4.0 8.0 0.00 0.00 0.00 81 1014.0
20260902131537 78 290 3.0 8.0 0.00 0.00 0.00 82 1014.2
20260902130032 78 290 0.0 6.0 0.00 0.00 0.00 84 1014.4
20260902124531 77 302 2.0 4.0 0.00 0.00 0.00 85 1014.4
20260902123030 76 274 0.0 5.0 0.00 0.00 0.00 86 1014.5
20260902121527 76 304 2.0 5.0 0.00 0.00 0.00 87 1014.6
20260902120025 75 260 0.0 5.0 0.00 0.00 0.00 87 1014.5
20260902114524 75 268 2.0 5.0 0.00 0.00 0.00 88 1014.2
20260902113022 75 278 2.0 7.0 0.00 0.00 0.00 88 1014.2
20260902111521 75 266 0.0 0.0 0.00 0.00 0.00 88 1014.1
20260902110030 75 265 0.0 0.0 0.00 0.00 0.00 88 1014.0
20260902104540 75 269 0.0 1.0 0.00 0.00 0.00 88 1014.1
20260902103017 75 266 0.0 3.0 0.00 0.00 0.00 88 1013.9
20260902101515 75 255 0.0 2.0 0.00 0.00 0.00 88 1013.7
20260902100013 76 259 0.0 0.0 0.00 0.00 0.00 87 1013.6
20260902094514 76 266 0.0 2.0 0.00 0.00 0.00 87 1013.5
20260902093012 77 257 0.0 3.0 0.00 0.00 0.00 87 1013.4
20260902091513 77 273 0.0 0.0 0.00 0.00 0.00 87 1013.5
20260902090010 77 266 0.0 5.0 0.00 0.00 0.00 87 1013.4
20260902084508 76 259 0.0 4.0 0.00 0.00 0.00 88 1013.4
20260902083007 76 262 0.0 3.0 0.00 0.00 0.00 89 1013.4
20260902081506 76 278 0.0 4.0 0.00 0.00 0.00 89 1013.4
20260902080013 76 274 1.0 4.0 0.00 0.00 0.00 89 1013.6
20260902074505 76 280 1.0 4.0 0.00 0.00 0.00 89 1013.6
20260902073002 76 278 2.0 5.0 0.00 0.00 0.00 89 1013.4
20260902071619 77 280 0.0 0.0 0.00 0.00 0.00 88 1013.4
20260902070059 77 278 0.0 1.0 0.00 0.00 0.00 88 1013.3
20260902064603 77 260 1.0 5.0 0.00 0.00 0.00 88 1013.3
20260902063113 78 281 1.0 3.0 0.00 0.00 0.00 88 1013.3
20260902060118 78 263 1.0 5.0 0.00 0.00 0.00 88 1013.4
20260902054549 79 283 2.0 4.0 0.00 0.00 0.00 87 1013.4
20260902053048 79 271 1.0 4.0 0.00 0.00 0.00 87 1013.4
20260902051551 79 287 1.0 6.0 0.00 0.00 0.00 87 1013.4
20260902050045 79 274 1.0 5.0 0.00 0.00 0.00 87 1013.4
20260902044546 79 270 1.0 5.0 0.00 0.00 0.00 87 1013.4
20260902043046 80 276 2.0 8.0 0.00 0.00 0.00 87 1013.3
20260902041541 80 276 1.0 4.0 0.00 0.00 0.00 86 1013.4
20260902040038 80 283 1.0 7.0 0.00 0.00 0.00 86 1013.3
20260902034537 80 274 2.0 6.0 0.00 0.00 0.00 86 1013.3
20260902033036 81 277 2.0 5.0 0.00 0.00 0.00 87 1013.3
20260902031542 81 272 2.0 4.0 0.00 0.00 0.00 86 1013.2
20260902030037 81 276 2.0 5.0 0.00 0.00 0.00 87 1013.2
20260902024536 81 280 1.0 4.0 0.00 0.00 0.00 87 1013.1
20260902023034 81 271 0.0 3.0 0.00 0.00 0.00 87 1013.2
20260902021542 81 283 1.0 4.0 0.00 0.00 0.00 87 1013.0